Location: Bonaustraße
(48.4603°N, 11.9280°E)
Time: 20:45:56
(UTC+02:00)

AO-92 - Pass Details

Date: 02 August 2021
Orbit: 484 x 494 km, 97.4° (Epoch: 16 September)

Event Time Altitude Azimuth Distance (km) Brightness Sun altitude
Exits shadow 22:26:37 22° 114° (ESE) 1,096 ? -13.7°
Maximum altitude 22:28:10 32° 69° (ENE) 855 ? -13.9°
Drops below altitude 10° 22:31:24 10° 5° (N) 1,678 ? -14.2°
Sets 22:33:36 0° 356° (N) 2,565 ? -14.5°
